www.pogodaiklimat.ru

Погода и климат >> Архив погоды >> Россия >> Иркутская область >> Черемхово


ПОГОДА в Черемхово

  • Прогноз погоды в Черемхово
  • Монитор погоды в Черемхово
  • Климат города

АРХИВ ПОГОДЫ в Черемхово

Время (UTC), дата Ветер
(напр.,м/с)
 
Видим.   Явления Облачность Т
(С)
Тd
(С)
f
(%)
Тe
(С)
Тes
(С)
Комфортность P
(гПа)
Po
(гПа)
Тmin
(С)
Tmax
(С)
R
(мм)
R24
(мм)
S
(см)
06 10.08 СЗ 4
{11}
50 км 9 баллов +19.5 +10.5 56 +21 +22 комфорт 1007.2 940.0
09 10.08 СЗ 2 50 км 6/6 600 м
[Cu hum]
+20.8 +9.2 47 +23 +25 комфорт 1005.0 938.2
12 10.08 В 2
{11}
50 км 2 балла +18.5 +12.3 67 +20 +20 1007.4 940.0 +20.9
15 10.08 ЮВ 3 н/о ясно +12.5 +10.8 89 +11 +11 1008.8 939.9
18 10.08 ЮВ 2 н/о ясно +11.1 +2.9 57 +10 +10 1009.4 940.0
21 10.08 В 3 н/о ясно +10.4 +9.6 95 +8 +8 1009.3 939.9
00 11.08 В 3
{5}
10 км ясно +13.9 +12.1 89 +13 +15 1009.9 941.3 +9.2
03 11.08 В 3 50 км ясно +19.4 +12.8 66 +21 +30 комфорт 1007.2 940.1
06 11.08 В 3 50 км ясно +22.4 +12.3 53 +25 +36 комфорт 1006.5 940.0
09 11.08 В 2 50 км ясно +24.4 +10.8 42 +26 +31 жарко 1004.4 938.6
12 11.08 В 2
{7}
50 км ясно +22.0 +13.3 58 +25 +25 комфорт 1006.5 940.0 +24.6
15 11.08 Ю 1 н/о ясно +16.7 +10.8 68 +18 +18 1007.7 939.9
18 11.08 В 3 н/о ясно +14.5 +10.7 78 +14 +14 1008.4 940.0
21 11.08 ЮВ 4 н/о 1/0
[Ci fib]
+11.5 +9.8 89 +9 +9 1008.7 939.6
00 12.08 ЮВ 4
{6}
10 км ясно +15.8 +12.2 79 +15 +17 1009.4 941.3 +10.5
03 12.08 ЮВ 5 20 км ясно +23.3 +14.3 57 +27 +33 душно 1005.5 939.4
06 12.08 ЮВ 4
{10}
20 км ясно +27.6 +14.2 44 +30 +39 жарко 1003.8 938.7
09 12.08 ЮВ 4 20 км ясно +29.0 +10.6 32 +29 +33 жарко 1002.1 937.3
12 12.08 ЮВ 4
{10}
20 км ясно +26.0 +12.8 44 +28 +28 жарко 1002.7 937.3 +29.1
15 12.08 ЮВ 3 н/о ясно +21.1 +14.0 64 +24 +24 комфорт 1004.2 937.7
18 12.08 ЮВ 4 н/о ясно +16.8 +12.3 75 +16 +16 1006.4 938.7
21 12.08 В 4 н/о ясно +14.2 +11.7 85 +13 +13 1005.8 937.6
00 13.08 ЮВ 3
{7}
50 км 1 балл +18.9 +13.5 71 +20 +22 1007.3 940.0 +13.7
03 13.08 С 2 50 км ясно +23.6 +14.7 57 +26 +37 жарко 1006.0 939.9
06 13.08 В 2 50 км 2 балла +26.9 +14.9 48 +30 +40 душно 1005.4 940.0
09 13.08 Ю 3 50 км 8/0
[Cs]
+28.6 +14.4 42 +31 +35 жарко 1003.6 938.8
12 13.08 З 1
{7}
20 км 9 баллов +24.2 +15.9 60 +27 +27 жарко 1005.9 940.0 +28.8
15 13.08 СЗ 3 н/о зарница 9/9 600 м
[Cb cap]
+21.4 +15.5 69 +25 +25 комфорт 1007.4 940.8
18 13.08 СЗ 4
{10}
н/о 10 баллов +18.9 +15.0 78 +20 +20 1010.1 942.7
21 13.08 СЗ 6
{14}
н/о 10 баллов +13.6 +10.8 83 +11 +11 1014.3 945.3
00 14.08 СЗ 3
{14}
4000 м гроза, ливневой дождь 10 баллов +11.2 +9.9 92 +9 +9 1019.2 949.3 +11.2 2
03 14.08 СЗ 4
{10}
20 км 10 баллов +11.7 +10.1 90 +9 +9 1020.6 950.7 +10.8
06 14.08 СЗ 3
{10}
20 км 10 баллов +13.4 +10.6 83 +12 +12 1020.1 950.7
09 14.08 СЗ 4 20 км 10/10 300 м
[Cb cap]
+14.9 +10.1 73 +14 +14 1018.7 949.8
12 14.08 С 3
{10}
20 км 9 баллов +14.1 +9.9 76 +13 +13 1020.0 950.7 +15.5 5
15 14.08 СЗ 1 н/о 10/10 600 м
[Cb cap]
+11.2 +9.1 87 +11 +11 1020.5 950.5
18 14.08 штиль 0 н/о 9 баллов +10.4 +9.0 91 +10 +10 1022.3 952.0
21 14.08 З 1 н/о 6/0
[Ac trans]
+9.5 +8.4 93 +9 +9 1020.4 950.0
00 15.08 СЗ 1
{4}
10 км 9 баллов +11.0 +9.3 89 +11 +11 1022.2 952.0 +9.1
03 15.08 СЗ 1 50 км 9/9 600 м
[Sc]
+14.6 +10.1 74 +15 +16 1019.3 950.3
06 15.08 СЗ 2 50 км 9 баллов +17.0 +9.9 63 +17 +19 1019.3 950.7
09 15.08 С 4 50 км 9/9 600 м
[Sc]
+17.4 +10.0 62 +17 +17 1017.2 948.9
12 15.08 СВ 2
{6}
50 км 10 баллов +15.7 +11.1 74 +16 +16 1018.1 949.3 +17.9
15 15.08 СЗ 1 н/о 10/10 600 м
[Cb cap]
+14.6 +11.4 81 +15 +15 1017.9 949.0
18 15.08 СЗ 1 н/о 9 баллов +12.5 +10.7 89 +12 +12 1018.9 949.3
21 15.08 штиль 0 н/о 9/9 600 м
[Sc]
+11.4 +10.3 93 +11 +11 1017.8 948.1
00 16.08 СЗ 1
{3}
50 км 7 баллов +13.3 +11.5 89 +13 +14 1018.6 949.3 +10.0
03 16.08 С 1 50 км 9/9 600 м
[Cb cap]
+17.1 +9.5 61 +18 +19 1015.6 947.3
06 16.08 ЮЗ 1 50 км 10 баллов +19.1 +9.8 55 +21 +21 комфорт 1015.9 948.0
09 16.08 В 2 20 км 9/8 600 м
[Cb cap Ac trans]
+18.9 +10.4 58 +20 +21 1013.0 945.4
12 16.08 ЮВ 2
{6}
20 км 2 балла +17.7 +10.8 64 +18 +18 1013.3 945.3 +20.1
15 16.08 Ю 1 н/о 8/8 1000 м
[Sc]
+15.7 +11.9 78 +16 +16 1012.4 944.1
18 16.08 В 2 н/о 10 баллов +15.1 +12.6 85 +15 +15 1012.5 944.0
21 16.08 В 2 н/о 10/10 1000 м
[Sc]
+14.5 +12.8 90 +14 +14 1009.6 941.2
00 17.08 В 3
{12}
50 км в посл. час ливневой дождь 2 балла +15.3 +13.3 88 +15 +16 1009.5 941.3 +14.3 0.0
03 17.08 ЮЗ 1 50 км 8/6 600 м
[Cb cap Ci sp]
+19.8 +13.5 67 +23 +27 комфорт 1007.4 940.4

 

Местоположение метеостанции Черемхово (Иркутская область, Россия): широта 53.18 долгота 103.00 высота над уровнем моря 598 м.

В архиве по умолчанию представлена погода в Черемхово за последнюю неделю. Архивные данные за месяц целиком и за предыдущие месяцы, начиная с января 2011 года, Вы можете получить, выбрав интересующий диапазон дат из раскрывающегося списка и нажав кнопку "Ввод!".

Внимание! Время в таблицах - всемирное. Для получения местного времени необходимо прибавить поправку, которая в Черемхово равна 8 ч.

Смотрите также архив погоды в соседних городах и на ближайших метеорологических станциях:

Погода в Заларях (Иркутская область, Россия) (53 км)
Погода в Инге (Иркутская область, Россия) (77 км)
Погода в Балаганске (Иркутская область, Россия) (91 км)
Погода в Ангарск (Иркутская область, Россия) (95 км)
Погода в Зиме (Иркутская область, Россия) (106 км)
Погода в Хомутово (Иркутская область, Россия) (119 км)
Погода в Усть-Ордынском (Иркутская область, Россия) (121 км)
Погода в Дабадах (Иркутская область, Россия) (122 км)
Погода в Иркутске (Иркутская область, Россия) (134 км)
Погода в Иркутск аэропорт (Иркутская область, Россия) (134 км)

Пояснения к столбцам:

Ветер - указаны скорость ветра в м/с - средняя за 10 мин, порывы в срок и между сроками (в фигурных скобках) и направление, откуда дует ветер: С - северный, СВ - северо-восточный, В - восточный, ЮВ - юго-восточный, Ю - южный, ЮЗ - юго-западный, З - западный, СЗ - северо-западный.
Видимость - горизонтальная дальность видимости в метрах или километрах. При видимости от 1 до 10 км при отсутствии осадков обычно наблюдается дымка, при ухудшении видимости до 1 км и менее - туман. В сухую погоду видимость может ухудшаться дымом, пылью или мглою.
Явления - указаны атмосферные явления, наблюдавшиеся в срок или в последний час перед сроком; фигурными скобками обозначены явления, наблюдавшиеся между сроками (за 1-3 часа до срока); квадратными скобками обозначены град или гололедные отложения с указанием их диаметра в мм.
Облачность - указаны через наклонную черту общая и нижняя облачность в баллах и высота нижней границы облаков в метрах; квадратными скобками обозначены формы облаков: Ci - перистые, Cs - перисто-слоистые, Cc - перисто-кучевые, Ac - высококучевые, As - высокослоистые, Sc - слоисто-кучевые, Ns - слоисто-дождевые, Cu - кучевые, Cb - кучево-дождевые. Подробнее классификацию облаков см. в Атласе облаков (PDF).
T - Температура воздуха - температура, измеренная на высоте 2 м над землей.
Td - Температура точки росы - температура, при понижении до которой содержащийся в воздухе водяной пар достигнет насыщения.
f - Относительная влажность воздуха - влажноcть воздуха, измеренная на высоте 2 м над землей.
Te - Эффективная температура - температура, которую ощущает одетый по сезону человек в тени. Характеристика душности погоды. При расчете учитывается влияние влажности воздуха и скорости ветра на теплоощущения человека.
Tes - Эффективная температура на солнце - температура, которую ощущает человек, с поправкой на солнечный нагрев. Характеристика знойности погоды. Зависит от высоты солнца над горизонтом, облачности и скорости ветра. Ночью, в пасмурную погоду, а также при ветре 12 м/с и более поправка равна нулю.
P - Атмосферное давление - приведенное к уровню моря атмосферное давление.
Po - Атмосферное давление - измеренное на уровне метеостанции атмосферное давление.
Tmin - Минимальная температура - минимум температуры воздуха на высоте 2 м над землей.
Tmax - Максимальная температура - максимум температуры воздуха на высоте 2 м над землей.
R - Количество осадков - Количество выпавших осадков за период времени, мм. При наведении курсора мыши на число - период времени, за который выпало указанное количество осадков.
R24 - Количество осадков - Количество выпавших осадков за 24 часа, мм.
S - Снежный покров - Высота снежного покрова, см. При наведении курсора мыши на число - состояние снежного покрова и степень покрытия местности в баллах.